RH
18 17 16 15 14 13 13 12 12 12 12 11 11 10 10 8 8 7 6 5 4 4 3 3 3 2 2 2 2 3 3 3 3 3 3 4 5 7 10 14 18 23 27 30 31 31 31 30 28 28 27 27 27 27 28 28 29 30 30 31 32 32 34 35 36 38 39 39 38 36 32 26 20 14 9 6 4 4 4 4 4 4 4 3 3 2
16 15 14 14 13 13 13 12 12 12 11 10 10 9 8 7 6 5 5 4 3 3 3 2 2 2 3 3 3 3 3 4 4 4 5 7 10 14 19 24 28 31 32 32 32 30 30 29 28 28 29 29 30 31 31 32 33 34 35 35 35 35 35 35 36 36 38 40 41 41 40 35 29 23 16 11 8 5 4 4 4 4 4 4 3 3
15 14 14 13 13 13 12 12 12 11 10 9 8 7 6 6 5 4 3 3 3 2 2 3 3 3 3 3 4 4 4 4 6 8 10 14 19 24 29 32 34 34 32 32 31 31 31 31 31 32 32 33 34 34 36 37 38 39 40 40 40 40 39 38 37 37 37 38 40 42 43 42 38 34 27 20 14 9 6 5 5 5 5 5 4 4
14 14 14 13 13 12 12 11 10 10 8 8 6 6 5 4 4 3 3 2 2 3 3 3 4 4 4 4 4 5 6 8 11 14 19 24 30 33 35 35 34 32 32 32 32 33 34 34 35 35 36 36 36 37 38 39 40 42 42 44 44 44 44 42 41 39 38 38 39 40 43 45 44 42 38 30 24 17 11 8 6 5 5 5 5 5
14 14 13 13 12 12 11 10 9 8 7 6 5 4 4 3 3 2 2 3 3 3 4 4 4 4 4 5 6 8 11 15 20 24 30 34 36 37 36 34 34 33 34 34 36 36 37 37 37 37 37 37 37 38 38 40 40 42 43 45 46 48 48 48 46 44 42 40 39 39 41 44 46 47 46 41 35 28 21 15 10 8 6 6 6 6
14 13 13 12 11 10 9 8 7 6 5 4 4 3 3 2 2 3 3 3 4 4 4 4 4 5 6 8 10 15 20 25 30 34 37 38 38 36 35 34 35 36 36 38 38 38 39 38 38 38 37 37 38 38 39 40 41 42 44 45 47 49 50 52 52 50 48 45 42 40 40 42 45 48 50 48 45 40 33 26 20 14 10 8 7 6
13 12 12 10 10 8 8 6 6 5 4 3 3 3 2 3 3 3 4 4 4 4 4 5 6 8 10 14 19 25 30 34 37 39 39 38 36 36 36 37 38 38 39 40 40 40 40 39 39 38 38 38 38 39 40 40 42 42 44 45 47 49 51 53 55 55 54 51 48 44 41 40 42 45 49 51 51 49 44 38 32 25 19 14 11 9
12 11 10 9 8 7 6 5 4 4 3 2 2 2 3 3 3 4 4 4 4 4 5 6 9 13 19 26 31 35 38 40 40 39 38 37 36 37 39 40 40 41 41 42 42 42 41 40 40 40 39 39 40 40 40 41 42 43 44 45 47 49 52 54 56 57 58 56 52 49 45 42 41 42 46 50 52 54 52 49 43 38 32 26 21 17
10 10 8 8 6 5 4 4 3 3 2 2 3 3 3 4 4 4 4 4 5 6 8 11 16 23 31 37 40 42 42 41 39 38 36 37 39 41 42 43 43 44 44 44 44 44 43 42 42 41 40 41 41 42 42 43 44 44 46 47 49 50 52 55 57 58 58 58 56 53 50 46 43 42 42 46 50 53 56 55 53 49 44 40 35 30
9 8 7 6 5 4 3 3 2 2 3 3 3 4 4 4 4 4 4 5 7 10 16 21 28 34 41 45 46 45 42 40 38 37 38 40 42 44 45 45 46 46 47 47 47 47 46 44 44 43 43 44 44 44 44 45 46 47 49 51 52 54 55 56 58 58 59 59 58 56 53 50 46 44 42 43 46 50 54 56 57 57 54 51 48 45
7 6 5 4 4 3 2 2 2 3 3 4 4 4 4 4 5 5 5 7 11 18 26 34 41 46 48 49 47 45 42 40 39 40 42 44 46 47 47 48 48 50 50 50 50 49 48 47 46 46 47 47 48 48 48 48 49 51 53 55 57 58 58 58 59 60 60 60 59 58 55 51 47 44 42 42 43 46 50 54 57 59 60 59 58 56
6 5 4 3 3 2 2 2 3 3 4 4 4 4 4 5 6 7 8 12 18 27 37 46 51 53 52 49 46 42 40 40 42 44 47 49 50 50 50 50 52 53 54 53 52 52 50 50 50 50 51 52 52 51 50 51 52 54 57 58 60 60 60 60 60 60 61 61 60 58 55 50 46 41 38 37 39 42 45 49 53 57 60 61 62 62
4 4 3 3 2 3 3 3 3 4 4 4 5 5 5 6 8 11 14 21 30 38 46 52 56 56 54 49 44 41 39 41 44 48 51 53 53 52 52 53 54 56 56 56 55 54 52 52 53 54 56 55 54 54 53 53 55 57 59 60 61 61 60 60 61 61 62 62 61 58 54 49 43 37 32 32 32 35 40 44 49 53 56 60 62 64
3 3 2 3 3 3 3 4 4 4 4 5 6 6 8 10 13 18 24 34 42 49 53 55 56 56 55 50 45 41 39 42 46 50 54 56 55 54 53 54 56 57 58 57 56 55 55 56 56 57 58 56 55 54 53 54 56 58 60 61 61 60 60 60 61 62 62 62 60 57 52 46 40 34 29 27 27 29 32 38 43 49 53 56 59 61
3 3 3 3 3 4 4 4 4 5 6 7 8 10 12 16 23 30 38 45 50 54 55 55 56 56 56 52 47 42 40 42 46 51 55 57 57 56 54 54 56 57 58 57 56 56 56 58 58 58 56 54 53 52 51 52 54 57 59 60 60 60 60 60 61 62 62 61 58 54 50 44 39 34 30 28 26 26 27 31 36 42 49 53 57 59
3 3 3 4 4 4 4 5 6 6 8 10 12 16 20 28 36 43 49 52 54 55 55 55 55 56 57 55 51 46 42 43 46 50 55 58 58 57 55 54 55 57 58 58 58 57 58 58 57 54 52 49 48 47 47 48 50 52 55 57 58 59 60 60 61 62 61 60 56 52 48 43 39 36 34 33 31 30 28 28 30 35 41 48 53 57
3 4 4 4 4 4 5 6 8 10 12 15 19 26 33 40 47 52 54 55 55 54 54 54 54 56 58 58 56 51 46 46 48 50 55 58 60 59 57 56 56 57 58 58 58 58 57 56 52 49 45 42 41 40 40 42 43 46 49 52 54 57 59 61 62 62 61 58 55 51 47 44 40 38 37 37 37 36 34 31 30 31 34 41 48 54
4 4 4 4 4 5 7 9 12 15 18 23 29 36 45 51 55 56 56 55 54 54 54 54 54 55 56 58 58 55 50 49 49 51 55 59 61 62 60 58 58 58 59 59 58 56 54 50 46 42 38 36 34 34 34 34 36 39 43 47 51 55 59 62 63 63 61 58 54 51 49 46 43 41 40 40 40 40 40 38 35 33 33 36 40 47
4 4 4 5 6 8 10 14 18 22 27 33 39 46 53 56 58 58 56 55 54 54 54 54 55 56 56 57 57 55 52 50 50 52 56 60 64 64 62 60 60 60 60 58 56 54 50 44 39 35 33 31 30 29 28 29 32 34 39 44 49 55 60 63 65 64 62 58 56 53 51 48 46 43 42 42 42 42 43 43 42 40 38 36 37 40
4 4 5 7 9 12 16 21 27 32 37 42 47 52 56 58 58 58 57 56 56 55 55 55 56 57 57 57 56 54 52 51 51 53 57 62 65 66 64 61 60 59 58 57 54 50 46 40 35 32 30 28 27 26 26 27 29 33 38 44 51 57 62 65 66 65 63 60 58 56 53 50 47 44 43 44 44 44 45 45 44 44 43 42 40 40
5 6 8 12 15 18 23 30 36 42 46 50 53 55 56 57 58 58 58 57 56 56 56 57 58 58 58 57 56 55 53 52 52 53 56 62 65 66 64 60 58 58 57 55 52 48 42 37 32 30 28 26 25 24 24 26 28 32 38 47 55 61 64 66 66 66 64 62 61 58 55 50 48 46 47 48 49 49 48 47 46 45 44 42 42 41
6 9 13 18 22 27 32 38 44 49 52 54 55 56 56 57 58 58 58 58 57 57 58 58 59 59 59 58 57 56 54 52 52 53 56 60 63 64 62 59 57 56 56 54 51 47 41 36 32 29 27 26 24 23 23 24 27 32 40 50 58 64 67 67 66 65 64 64 63 60 56 52 51 52 54 56 57 57 56 55 53 51 49 47 45 43
11 15 20 25 30 36 41 46 50 53 55 55 55 56 56 57 58 58 58 58 58 58 58 59 60 60 61 60 60 58 56 54 53 53 55 58 61 62 60 58 56 56 56 54 50 46 40 34 31 28 26 24 23 22 22 24 27 32 42 53 62 66 69 68 66 66 65 65 63 60 55 54 55 58 60 62 63 63 63 62 61 60 58 57 54 51
17 22 26 32 37 42 48 51 53 54 55 55 55 56 56 57 58 58 58 57 57 57 58 59 60 61 62 62 62 61 58 55 53 53 54 57 59 60 60 57 56 56 57 56 51 45 39 34 30 27 26 24 22 22 22 24 28 34 44 57 65 70 71 70 69 68 66 65 61 57 54 56 58 60 62 64 64 64 64 64 64 64 63 62 60 59
24 29 33 38 43 47 51 53 54 54 54 54 54 55 56 57 57 58 57 57 57 57 57 58 60 61 62 63 64 63 60 56 54 54 54 56 59 60 60 58 57 58 59 57 52 46 38 32 29 27 25 23 21 20 21 24 29 36 46 58 67 72 73 72 70 68 65 61 57 55 56 59 62 64 65 66 67 67 67 67 66 66 65 64 64 63
31 35 39 43 46 50 52 53 53 54 54 54 54 54 55 56 57 57 57 56 56 56 57 57 58 60 61 62 63 63 61 58 56 55 56 58 60 61 62 60 59 59 61 59 53 45 36 31 28 26 24 22 21 20 21 25 30 37 46 56 64 69 72 70 67 63 59 56 55 58 61 65 67 69 70 71 71 71 71 71 70 69 68 66 66 65
38 40 44 46 49 51 52 53 54 54 54 54 54 54 54 55 56 56 56 56 56 56 56 56 57 58 59 61 62 62 62 59 57 56 58 60 61 63 63 62 60 61 62 60 54 46 36 30 27 25 23 21 20 20 22 26 31 36 43 50 56 60 62 61 58 56 54 55 58 62 65 66 67 68 68 67 68 68 70 70 70 70 69 67 66 65
42 45 47 48 50 51 52 53 54 55 55 55 55 54 54 54 55 55 55 55 55 55 56 56 56 56 57 58 60 61 61 60 58 57 58 61 62 64 64 63 62 62 62 62 56 47 37 30 26 24 22 21 21 21 23 27 32 36 40 44 48 50 52 52 52 52 54 57 60 61 61 61 60 59 58 57 57 58 60 63 65 66 66 66 64 63
46 48 49 50 50 51 52 54 55 56 56 55 55 55 54 54 54 54 54 54 55 55 56 55 55 55 55 56 57 58 60 58 58 58 59 61 63 64 66 65 63 62 62 62 58 50 39 31 26 24 22 22 21 22 25 29 32 36 40 43 46 48 50 51 53 55 57 58 59 60 60 59 58 58 57 56 55 55 56 57 58 60 61 61 61 60
49 50 50 50 50 51 52 54 55 56 56 56 55 55 55 55 55 55 55 55 55 55 55 55 54 54 53 53 54 56 57 57 57 57 59 61 63 65 66 66 65 63 62 62 58 51 41 32 27 24 23 22 23 24 27 30 34 38 41 43 46 48 50 52 54 56 58 60 61 62 62 63 62 62 62 61 60 60 59 59 58 58 58 57 57 56
50 50 50 50 51 52 53 54 55 56 56 56 56 56 56 56 56 56 56 56 56 55 55 54 54 52 52 51 52 52 54 54 54 56 58 60 63 66 68 68 67 65 64 61 56 50 40 32 28 25 24 23 24 26 29 32 36 39 42 44 46 48 50 52 55 57 60 62 64 65 65 65 65 65 64 65 65 64 64 63 62 61 60 59 58 57
50 50 50 51 51 52 53 54 55 56 56 57 57 57 57 57 56 56 56 56 56 56 55 54 53 52 50 50 49 49 50 51 52 54 57 60 62 66 68 69 68 67 66 61 55 48 38 31 28 26 25 25 26 28 32 34 37 40 43 45 47 49 51 54 56 58 61 63 65 67 68 67 67 67 66 67 66 66 65 64 63 62 62 62 62 62
50 50 50 51 52 53 54 54 56 56 57 58 58 58 58 57 56 56 55 55 55 55 54 52 51 49 48 48 47 46 46 48 49 50 54 57 61 65 68 69 69 68 67 63 56 48 38 31 28 27 26 27 28 30 33 36 39 42 44 47 50 52 54 56 58 60 62 65 68 70 70 70 70 70 71 70 69 68 66 65 64 62 61 60 60 60
51 51 51 52 53 54 55 56 56 57 58 58 58 57 57 56 55 54 53 52 51 51 50 50 48 46 45 44 44 44 44 44 45 46 50 54 58 63 68 68 68 68 68 65 58 49 39 32 29 28 28 29 30 32 35 38 40 44 46 50 53 55 57 58 60 62 65 68 71 73 73 73 74 74 74 73 72 70 68 66 64 62 60 57 54 52
52 52 52 53 54 56 57 58 58 58 58 57 56 55 54 52 51 50 48 47 46 45 44 43 42 42 42 41 40 40 40 41 41 42 45 50 55 61 66 68 68 68 68 66 60 50 40 34 31 30 30 30 32 34 37 40 43 46 50 52 55 57 58 60 62 64 68 72 74 75 75 75 75 75 74 73 72 69 67 65 62 60 56 51 47 43
54 54 54 55 56 58 59 59 58 58 57 55 52 50 48 47 45 43 42 40 39 38 37 36 36 36 36 36 36 37 38 38 38 39 40 45 51 57 63 66 68 68 68 66 60 52 42 36 32 32 32 32 34 37 40 42 46 49 53 56 58 60 61 62 64 68 72 74 75 75 76 76 75 74 73 71 69 67 64 61 58 53 48 44 40 36
56 56 56 57 58 59 59 58 58 56 53 50 47 44 42 39 37 35 34 32 32 31 30 30 30 30 30 31 31 32 34 34 34 35 36 40 46 53 60 65 68 68 67 66 62 55 45 38 34 33 34 34 36 39 42 45 48 52 56 61 64 65 65 66 68 71 74 75 76 76 76 75 74 72 70 69 67 65 62 60 56 52 47 42 39 36
58 58 58 58 58 58 57 55 52 50 46 42 39 36 34 31 29 28 26 26 25 24 23 23 23 23 24 24 26 26 28 29 30 31 32 35 41 48 57 64 67 68 67 66 63 58 50 41 36 34 34 36 38 40 43 46 50 54 58 64 68 70 70 70 72 74 76 76 76 76 75 74 72 71 70 68 66 64 64 64 63 60 57 52 49 46
60 60 60 58 57 55 52 49 45 41 37 34 31 29 26 24 23 22 21 20 19 19 18 18 18 18 18 18 20 20 22 23 24 26 27 30 36 44 53 61 66 68 68 67 65 61 54 46 40 36 36 38 40 43 46 48 51 55 60 66 70 73 74 74 75 76 76 76 76 74 74 73 72 72 70 67 65 65 67 68 68 67 66 63 61 60
60 60 58 55 52 48 44 40 36 33 30 27 25 23 22 20 19 18 18 17 16 16 15 15 14 14 14 14 14 15 16 18 19 21 23 26 32 40 50 59 65 68 69 68 66 64 58 51 44 40 38 39 41 44 47 50 53 57 62 68 72 75 75 75 76 76 76 75 74 73 72 73 74 73 70 66 65 66 68 68 68 68 66 66 66 67
58 56 52 48 44 40 35 32 29 26 24 23 21 20 19 19 18 18 17 16 16 16 15 15 14 14 13 12 12 12 12 13 15 16 18 22 28 35 45 56 64 68 69 68 68 66 62 56 49 44 42 42 43 46 48 50 54 59 64 69 73 75 75 76 76 75 74 73 72 72 72 74 74 73 69 66 66 68 68 68 68 67 66 66 68 70
51 48 44 40 36 32 29 26 25 23 22 21 20 20 20 19 18 18 18 17 17 16 16 16 16 15 14 13 12 11 10 10 12 13 15 19 24 32 42 53 62 68 70 69 68 67 64 59 54 49 45 45 46 47 49 52 57 62 68 72 74 75 75 75 74 73 71 71 72 73 74 75 74 72 68 68 69 71 71 70 69 69 70 71 72 73
42 39 35 32 29 27 26 24 24 23 23 22 22 21 20 19 19 18 18 18 18 18 18 18 18 18 17 16 14 13 12 11 11 11 13 16 21 29 39 50 60 66 69 69 68 68 66 62 57 53 49 48 48 49 51 54 60 66 72 73 73 72 72 72 70 68 68 70 73 74 76 75 73 70 68 70 71 72 72 72 72 73 74 74 75 76
34 32 30 28 27 26 26 26 25 25 24 24 23 22 20 19 19 18 18 18 18 18 18 18 19 19 19 19 19 17 15 14 12 12 12 15 19 26 37 48 58 66 69 68 68 68 67 64 60 56 52 51 51 52 53 57 62 68 73 73 72 71 70 67 65 64 66 70 74 76 76 74 72 70 68 70 71 70 70 69 70 72 74 74 76 76
30 29 29 28 28 28 28 28 28 27 26 25 23 22 20 20 19 19 18 18 18 18 18 18 19 20 20 21 21 21 20 18 16 14 13 15 19 26 36 48 57 64 68 68 68 68 66 64 61 58 55 54 54 55 57 60 65 69 73 73 73 71 69 65 62 62 65 70 74 76 76 74 72 71 70 70 70 69 68 69 70 73 74 76 76 76
30 30 31 30 30 30 31 31 30 29 27 25 23 21 20 20 20 20 20 20 20 19 19 18 19 19 20 21 22 23 23 22 20 18 16 16 20 26 36 48 57 64 67 68 68 67 66 64 61 59 58 58 59 60 62 64 67 70 72 73 73 72 69 65 63 63 66 71 74 76 76 75 74 73 72 72 71 71 70 72 73 75 76 76 75 72
32 33 33 33 33 34 34 33 32 30 27 25 23 22 22 22 22 23 23 22 22 21 20 20 20 20 20 21 22 23 24 24 24 22 20 20 23 29 38 50 58 65 67 67 68 67 66 62 60 59 60 62 64 66 68 69 70 70 72 72 72 70 68 66 64 64 68 73 75 76 75 75 74 74 74 74 74 74 73 73 74 75 75 73 69 66
35 35 35 36 36 36 36 34 32 30 26 24 24 23 24 24 25 26 26 25 24 23 22 22 21 21 20 21 22 23 24 25 26 25 24 24 27 33 42 53 61 66 68 67 67 66 65 61 59 58 60 64 68 70 72 72 72 73 73 73 71 69 66 65 64 66 71 74 76 76 75 75 75 74 75 75 75 74 73 74 74 74 71 66 64 64
37 37 37 38 39 39 38 35 32 28 26 24 24 25 26 27 28 28 28 27 26 26 25 24 24 22 22 21 22 23 24 26 26 27 27 28 31 37 46 57 65 69 70 68 67 66 64 60 58 58 60 65 69 72 74 74 75 76 76 74 71 68 66 65 66 68 73 76 76 76 75 75 75 74 74 74 72 72 72 74 74 71 65 63 64 68
38 38 38 39 40 40 38 34 30 27 24 24 24 26 28 29 30 30 30 29 29 28 28 27 26 24 23 22 22 23 24 26 28 29 30 31 34 40 50 60 68 72 72 71 69 67 65 61 58 57 59 64 68 71 72 74 76 77 77 75 71 68 65 65 67 70 75 76 76 76 75 75 74 74 72 70 70 70 73 73 69 64 59 63 68 74
40 39 40 40 40 40 37 33 29 26 24 24 25 27 29 30 31 32 31 31 31 31 31 30 29 27 25 23 22 23 24 26 28 30 32 33 37 43 53 63 70 74 74 74 72 70 68 64 61 58 58 61 64 67 68 70 74 76 77 75 72 68 66 66 69 73 76 76 76 76 75 75 74 72 69 69 70 72 73 68 62 58 60 67 73 76
Wind_Speed
87 88 90 91 92 94 96 97 99 101 103 105 107 109 111 113 115 116 117 116 114 112 109 106 103 99 96 93 89 86 83 80 77 74 70 67 64 60 58 55 53 52 51 51 50 50 49 49 48 47 46 46 45 45 45 44 45 45 45 45 46 46 47 48 48 49 49 49 49 49 49 49 49 49 49 50 51 52 53 54 56 58 61 64 66 69
89 90 92 93 95 96 98 100 102 104 106 108 110 112 114 115 116 116 115 112 109 105 101 97 94 91 88 84 81 77 74 71 68 65 62 59 56 54 53 51 51 50 49 48 47 46 45 44 43 43 42 42 42 42 42 42 42 42 42 42 43 43 44 44 45 46 47 47 47 47 47 47 46 46 46 46 47 47 48 49 50 52 54 57 59 62
91 92 94 96 97 99 101 103 105 107 109 111 113 115 116 115 114 112 109 105 101 97 93 89 85 82 79 76 72 69 66 63 60 57 55 53 52 51 50 50 49 47 46 45 43 42 41 41 40 40 40 40 40 40 40 40 40 40 40 41 41 41 41 42 43 43 44 45 45 46 46 45 45 44 44 43 44 44 44 45 46 47 49 51 53 56
93 94 96 98 100 102 103 106 108 111 113 114 115 115 114 112 109 105 101 96 92 88 85 81 77 74 71 68 64 61 58 56 54 52 51 50 49 49 48 47 45 44 42 41 40 39 39 39 39 39 40 40 40 40 40 40 40 41 41 40 40 40 40 41 41 41 42 43 43 44 44 44 44 43 42 42 41 41 41 41 42 43 44 46 47 50
95 97 99 101 103 105 107 109 111 113 114 115 114 112 109 105 101 97 93 88 83 79 76 73 69 66 63 60 57 54 52 50 49 49 49 48 48 47 46 43 41 39 38 38 38 38 38 39 39 40 40 41 41 41 41 41 41 41 41 41 41 41 41 41 40 40 41 41 41 42 42 43 43 43 42 41 40 39 39 39 39 40 40 41 43 44
98 100 102 104 106 108 110 112 113 114 113 112 110 106 102 97 92 88 84 80 76 72 68 65 62 59 56 53 51 49 47 47 47 47 47 47 46 44 41 39 37 36 36 37 38 38 39 40 41 41 42 42 42 42 42 42 42 42 42 42 42 41 41 41 41 41 40 40 40 40 41 41 41 42 41 41 40 38 37 37 37 37 37 38 39 40
101 103 105 107 109 111 113 113 113 111 109 106 103 99 94 89 83 79 75 72 68 65 61 58 55 52 49 47 46 45 45 45 46 46 46 45 42 40 37 36 35 36 36 37 39 40 41 41 42 42 42 43 43 43 42 42 42 42 41 41 41 41 41 41 41 41 40 40 40 40 39 40 40 40 40 40 40 39 37 36 35 35 35 36 36 38
104 106 109 111 112 113 113 112 110 106 102 98 94 90 86 81 76 71 67 64 61 57 54 51 49 46 44 43 43 43 44 44 45 44 43 41 38 36 34 34 35 36 37 38 40 41 42 42 42 43 43 43 43 43 43 43 42 42 41 41 40 40 40 40 40 40 40 40 40 39 39 39 39 39 39 40 40 39 38 37 36 35 34 34 35 35
108 110 112 113 113 111 109 107 105 101 95 89 85 80 76 73 69 65 61 56 53 50 48 46 44 42 41 41 41 42 43 43 43 42 40 38 35 34 33 34 35 36 38 39 40 41 42 42 42 42 43 43 43 44 44 44 43 43 42 41 40 40 40 40 40 40 40 40 40 39 39 38 38 38 38 39 39 39 39 38 37 36 35 34 34 35
111 113 113 113 111 107 102 99 96 93 88 82 77 73 68 64 61 58 55 51 47 44 42 41 40 39 39 40 40 41 42 42 41 39 37 35 34 33 33 34 35 37 38 40 41 41 42 42 42 42 43 44 44 45 45 45 44 43 42 41 40 40 39 39 39 39 39 39 39 39 38 38 38 37 37 38 38 39 39 39 38 38 37 36 35 35
113 113 111 109 106 103 97 92 88 84 79 74 70 66 62 57 53 51 48 45 42 40 38 38 37 37 38 38 39 39 39 39 38 37 35 34 33 33 33 34 36 37 39 40 41 41 42 42 42 43 44 44 45 46 46 45 45 44 43 41 40 39 39 39 39 39 38 38 38 38 38 38 37 37 37 37 37 37 38 39 39 39 39 38 38 37
113 110 107 103 99 95 91 86 82 77 71 66 62 59 56 52 48 45 42 40 38 36 36 36 36 36 36 37 37 37 37 37 36 35 34 33 33 33 34 35 36 38 39 40 40 41 41 42 43 44 45 45 46 46 46 45 45 43 42 41 39 39 38 38 38 37 37 37 36 37 37 37 37 36 36 36 36 36 37 38 38 39 40 40 40 40
109 106 101 97 92 88 83 78 74 69 64 59 55 52 50 47 44 40 37 36 34 34 34 34 34 34 35 36 36 36 35 35 34 33 33 33 33 34 35 36 37 38 38 39 40 40 41 42 43 44 45 46 46 46 46 45 44 42 41 40 39 38 37 37 36 36 35 35 35 35 36 36 36 36 35 35 34 35 35 36 37 38 39 40 41 42
103 99 95 90 85 80 75 71 66 61 57 53 50 46 44 41 39 36 34 33 33 33 33 33 32 32 32 34 35 35 34 33 33 32 32 32 33 34 35 36 36 37 38 38 39 40 41 43 44 44 45 46 46 45 45 44 43 41 40 39 38 38 37 36 35 34 34 34 34 35 35 35 34 34 33 32 32 33 33 34 35 36 37 39 40 42
96 91 87 82 78 73 68 63 58 54 51 47 44 41 39 36 34 33 32 32 32 32 32 31 30 30 30 32 33 34 33 32 32 32 32 32 33 35 36 36 36 37 37 38 39 40 41 43 44 44 45 45 45 44 44 43 42 41 40 39 38 37 37 36 35 34 33 33 34 34 33 33 32 31 30 29 29 30 30 31 33 34 35 37 38 40
89 83 78 74 70 65 61 56 52 48 45 42 39 37 35 33 32 32 32 31 31 31 30 29 28 27 27 29 32 33 33 32 32 32 32 32 33 35 36 36 36 36 37 38 39 40 42 43 43 44 43 43 43 43 42 42 41 41 40 40 39 38 37 36 34 34 33 33 33 33 32 31 30 28 27 27 26 26 27 28 29 31 32 34 36 37
81 76 71 67 62 58 54 50 46 43 40 38 35 33 32 31 31 31 31 30 30 29 29 28 27 25 25 27 29 32 33 33 32 32 31 31 32 34 35 36 36 36 36 38 39 41 41 42 42 42 41 41 41 41 41 41 41 41 41 40 39 38 37 36 34 33 32 32 32 31 31 30 29 28 27 26 25 24 23 24 25 26 28 30 32 34
73 68 64 60 56 52 48 44 41 39 36 34 32 31 30 30 30 30 29 29 29 28 27 27 26 25 25 25 27 30 32 32 32 31 31 30 31 33 34 35 35 36 36 38 39 40 41 41 40 39 39 39 39 40 40 41 41 41 40 40 39 38 37 35 33 32 31 30 30 30 30 29 29 28 27 25 24 23 22 22 21 22 23 25 28 30
66 61 57 53 50 46 43 39 37 35 33 32 30 30 29 29 28 28 28 28 28 27 27 26 25 25 26 26 27 29 31 32 32 31 29 28 29 31 33 34 35 35 36 38 39 39 39 39 38 37 38 38 39 39 40 40 40 40 39 39 38 37 35 33 31 30 29 28 28 28 28 28 28 27 26 25 24 23 22 21 21 20 21 21 23 25
60 55 51 47 44 42 38 36 34 32 31 30 29 29 28 27 27 26 27 27 27 27 26 25 25 25 26 26 27 29 30 31 31 30 28 27 28 30 32 33 34 35 36 37 38 39 38 37 36 36 37 37 38 39 40 40 39 38 38 37 36 34 32 30 29 28 27 27 27 27 27 27 26 25 24 23 23 22 22 22 21 21 21 20 21 22
53 50 46 43 40 37 35 33 32 31 30 29 29 28 27 26 25 25 25 26 26 25 25 25 25 25 25 26 27 28 30 31 30 29 27 26 27 29 31 33 34 34 35 36 37 37 37 36 35 35 36 37 38 39 40 39 38 36 35 34 32 31 29 28 27 26 26 26 27 27 27 26 24 23 22 21 21 21 22 22 22 22 21 21 21 21
47 44 42 39 36 34 32 31 30 30 30 29 29 28 26 25 25 24 24 25 25 24 24 24 24 24 25 26 27 28 29 30 30 28 26 25 25 28 31 32 33 34 35 36 37 36 36 35 34 35 36 37 39 39 39 38 36 34 32 31 29 27 26 25 25 25 25 26 26 26 25 24 22 21 20 20 21 21 21 22 22 22 22 22 21 21
43 40 38 36 34 32 31 31 30 30 30 29 28 27 26 25 25 24 24 24 24 23 23 23 23 23 24 25 26 28 29 30 30 28 26 25 25 27 30 32 33 33 34 36 36 36 34 34 34 34 35 37 38 39 39 37 35 32 29 27 26 24 24 24 24 24 24 25 25 25 23 21 20 19 19 19 20 21 21 22 22 22 22 22 22 21
39 37 35 33 32 32 31 31 31 30 29 29 27 26 25 25 24 24 24 24 24 23 22 22 22 22 23 24 26 27 29 29 29 28 26 25 25 27 30 31 32 33 34 35 36 35 34 33 33 34 35 37 38 38 38 35 32 29 26 24 22 22 22 22 22 23 23 24 23 22 20 18 17 18 18 19 20 21 21 22 22 23 23 23 22 22
36 35 33 32 32 32 32 32 31 31 29 28 27 26 25 24 24 24 24 24 24 23 22 22 21 22 22 23 25 26 28 29 29 28 26 25 25 27 30 31 32 33 34 35 35 34 33 32 32 33 35 36 37 37 36 33 30 27 23 21 20 19 19 20 21 22 23 22 20 18 16 16 17 18 19 20 21 21 22 23 23 23 24 24 23 23
35 34 33 33 33 33 33 33 32 31 29 28 27 26 25 25 24 24 24 24 24 24 23 22 22 22 22 23 24 26 27 28 28 27 27 26 26 27 30 31 32 33 33 34 34 34 32 31 31 32 34 35 35 35 33 31 27 24 21 19 18 18 18 19 20 20 20 18 16 15 15 16 18 19 20 21 22 23 23 24 24 25 25 25 25 24
34 34 34 34 34 34 34 33 32 31 30 28 27 27 26 25 25 25 25 25 25 24 23 23 22 22 22 23 24 25 27 27 28 27 27 26 26 27 29 31 32 32 33 33 34 33 32 31 31 31 33 33 34 33 31 28 24 21 18 16 15 15 16 16 16 16 14 13 13 14 16 17 19 20 21 22 23 23 24 24 25 25 25 26 26 26
34 34 35 35 35 34 34 33 32 31 30 29 28 28 27 27 26 26 25 25 25 25 24 24 24 23 23 23 23 25 26 27 27 27 26 26 27 28 29 31 31 32 32 32 33 32 31 30 30 30 31 32 31 30 28 25 22 19 16 14 12 12 12 12 11 12 12 13 15 16 18 19 20 21 21 22 23 23 23 24 24 25 25 25 26 26
35 35 35 35 35 34 33 32 31 31 30 29 29 28 28 28 27 27 26 26 26 26 25 25 25 25 24 23 24 25 26 27 28 27 26 26 27 27 29 30 31 31 31 31 31 31 31 30 29 29 30 30 29 27 25 23 20 17 15 13 11 10 10 11 12 13 15 16 18 19 20 21 22 23 23 24 24 24 24 24 24 25 25 25 25 26
35 35 35 35 35 34 33 32 31 30 30 30 29 29 29 29 29 29 28 28 27 27 27 26 26 26 25 25 24 25 26 27 27 27 27 26 26 27 28 30 31 31 31 30 29 29 29 29 28 28 28 28 27 25 23 21 19 17 15 14 13 13 13 14 15 17 18 20 21 22 24 25 26 26 27 27 26 26 26 26 26 25 25 25 25 25
35 35 35 34 34 33 32 31 31 30 30 30 30 30 30 30 30 30 30 30 29 29 29 28 27 27 27 26 26 26 26 27 27 27 27 27 27 27 28 29 30 31 31 30 28 27 27 27 27 27 27 26 25 23 21 19 18 17 16 16 15 16 16 17 18 19 21 22 24 26 27 28 29 30 30 30 29 29 28 28 27 27 26 25 24 23
35 35 34 34 33 32 32 31 31 30 30 30 30 31 31 31 31 31 31 31 31 31 30 30 29 29 28 28 28 28 27 27 27 27 27 27 26 27 27 28 29 30 30 30 28 26 24 24 25 26 25 24 23 21 20 18 17 17 17 17 17 18 19 19 20 21 23 25 26 28 30 31 31 32 32 32 31 31 30 30 29 28 27 25 24 23
35 34 33 33 32 32 31 31 31 31 30 31 31 31 31 32 32 32 32 33 33 33 32 32 31 31 30 29 29 29 29 29 28 28 27 27 26 26 27 28 28 29 29 29 28 26 23 22 22 23 23 23 21 20 18 18 17 17 17 18 18 19 20 21 22 23 25 26 28 29 31 32 33 33 33 32 32 32 32 31 31 30 28 26 24 23
34 33 33 32 32 31 31 31 31 31 31 31 31 32 32 32 33 33 34 34 34 34 34 34 33 33 32 31 30 30 30 30 29 29 28 27 27 26 27 27 28 28 28 27 26 25 23 21 21 21 21 21 20 19 18 17 17 18 18 19 20 21 22 22 23 25 26 27 29 31 32 33 33 33 33 32 32 32 32 32 31 30 28 27 25 22
33 33 32 32 31 31 31 31 32 32 32 32 32 32 33 33 34 34 35 35 35 35 35 35 35 34 34 33 32 31 30 30 30 29 28 28 27 27 26 27 27 27 27 26 25 23 22 21 20 19 19 19 19 19 18 18 18 18 19 20 21 22 23 24 25 26 27 29 30 31 32 33 33 32 32 32 32 32 32 31 30 29 27 25 23 21
33 32 32 31 31 32 32 32 32 32 33 33 33 33 34 34 35 35 36 36 36 36 36 36 36 36 35 35 34 32 31 30 30 29 29 28 27 27 26 27 27 27 26 25 23 22 21 20 19 19 18 18 18 18 19 19 19 20 21 22 23 24 25 26 27 28 29 30 31 32 33 32 32 31 31 31 31 31 30 29 28 26 24 22 20 19
32 32 32 32 32 32 32 32 33 33 33 33 34 34 34 35 35 36 36 36 36 37 37 37 37 37 37 36 35 34 33 32 31 30 29 28 28 27 26 26 27 27 26 25 23 21 20 19 19 19 18 18 18 18 19 20 21 22 23 24 25 26 27 28 29 30 31 32 32 32 32 32 32 31 31 31 30 29 27 26 25 23 22 20 19 18
32 32 32 32 32 32 33 33 33 33 33 33 34 34 34 35 35 35 36 36 36 36 36 36 37 37 37 37 36 35 34 33 32 31 29 28 28 27 26 26 26 26 26 25 23 21 19 18 18 18 18 18 19 19 19 20 21 22 24 25 26 27 28 29 30 31 32 32 32 32 32 32 31 31 31 30 28 26 24 23 23 22 22 21 20 21
33 32 32 32 32 32 32 32 32 32 33 33 33 33 34 34 34 34 35 35 35 35 35 35 36 36 36 36 36 36 35 34 32 31 30 29 27 27 26 26 26 26 26 25 24 22 20 19 18 18 18 18 19 20 21 22 22 23 24 25 27 28 29 29 30 31 31 32 32 32 31 31 31 30 29 27 25 23 23 23 23 23 23 23 24 24
33 33 33 33 32 32 32 31 31 31 32 32 32 32 32 32 33 33 33 33 34 34 34 34 34 35 35 35 35 35 34 34 32 31 30 28 27 26 26 26 25 25 25 25 24 23 21 19 19 18 18 18 19 20 21 22 23 24 25 25 26 26 27 28 29 30 31 31 31 31 30 30 29 28 26 24 23 23 24 25 25 25 26 26 27 27
33 33 33 32 32 31 31 30 30 30 30 30 30 30 30 31 31 31 31 32 32 32 32 32 33 33 34 34 34 35 34 33 32 31 29 28 27 26 26 25 25 25 24 24 24 24 22 21 19 19 19 19 19 20 21 22 23 24 25 25 25 25 25 27 28 29 30 30 30 29 29 28 27 26 24 22 22 23 24 25 26 27 28 29 30 30
32 32 32 31 30 30 29 29 29 29 29 29 29 29 29 29 29 29 30 30 30 30 31 31 31 31 32 32 33 33 33 33 32 30 29 28 26 26 25 25 25 24 24 24 24 24 23 22 20 20 19 19 19 20 21 22 23 24 25 25 24 24 24 26 27 28 29 28 28 27 27 26 25 24 21 20 20 22 24 25 27 28 29 31 32 32
31 30 30 29 29 28 28 28 28 28 28 28 28 28 28 28 28 28 29 29 29 29 30 30 30 30 30 30 31 32 32 32 31 30 29 27 26 25 25 24 24 24 23 23 23 23 23 22 21 20 20 19 20 20 21 21 22 24 24 25 24 24 24 25 26 27 27 26 26 25 25 25 24 23 21 20 20 22 23 25 27 29 30 32 32 31
29 28 28 27 27 27 27 27 27 27 27 27 27 28 28 28 28 28 28 28 28 29 29 29 29 29 28 28 29 29 30 30 30 30 28 27 25 25 24 24 24 23 23 23 23 23 22 22 21 21 20 20 20 20 21 21 22 23 24 24 24 25 25 26 26 25 25 24 24 24 24 24 24 24 22 22 22 23 25 27 28 30 31 30 29 26
27 26 26 26 26 26 26 26 26 27 27 27 27 27 27 28 28 28 28 28 28 28 28 28 28 28 27 27 27 27 28 28 29 29 28 27 25 24 24 23 23 23 22 22 22 22 21 21 20 20 20 20 20 21 21 21 21 22 22 23 24 24 25 26 26 25 24 23 23 23 24 25 25 25 25 25 26 27 28 30 30 30 28 26 24 22
25 25 25 25 25 25 26 26 26 26 26 27 27 27 27 27 28 28 28 28 28 28 28 28 28 27 27 26 26 26 26 26 27 27 27 26 25 24 24 23 23 22 22 21 21 21 21 20 19 18 18 19 20 20 20 20 20 21 21 22 23 24 24 25 25 24 24 24 24 24 25 25 25 26 27 28 30 31 31 31 30 28 24 22 20 20
24 24 24 24 25 25 25 25 26 26 26 26 27 27 27 27 27 28 28 28 28 28 28 28 28 27 27 26 26 25 25 25 25 25 25 25 25 24 24 23 23 22 21 21 21 21 20 19 18 17 16 16 17 18 18 18 19 19 20 21 22 23 23 24 24 24 24 24 25 25 25 25 25 26 28 30 31 32 32 30 27 24 21 19 20 22
23 23 24 24 25 25 25 25 25 25 26 26 26 27 27 27 28 28 28 28 28 28 28 27 27 27 27 27 26 25 25 24 24 24 24 24 23 23 23 23 22 22 21 21 20 20 19 18 17 15 14 14 14 14 15 16 17 19 20 21 21 22 23 23 23 23 24 25 25 25 25 25 25 27 29 31 32 31 29 26 23 20 19 20 22 24
23 23 24 24 24 25 25 25 25 25 25 26 26 26 27 28 28 28 28 28 28 28 28 27 27 27 27 26 26 25 25 24 24 23 23 22 22 22 22 22 21 21 21 21 20 20 19 18 16 13 12 11 11 11 13 14 16 18 19 20 21 22 22 22 23 23 24 25 25 24 24 25 26 28 30 31 30 28 25 21 18 18 19 21 23 25
23 23 24 24 24 24 25 25 25 25 25 25 26 26 27 27 28 28 28 28 28 28 28 27 27 27 27 26 26 25 24 24 23 23 22 22 21 21 21 20 20 20 20 20 20 19 19 17 15 13 10 9 9 9 11 13 15 17 18 20 21 22 22 22 23 23 24 24 24 23 24 25 28 30 30 29 26 23 19 17 16 18 20 22 24 25
23 24 24 24 24 25 25 25 25 25 25 25 26 26 27 27 28 28 28 28 28 28 28 28 27 27 27 26 26 25 24 24 23 22 21 21 20 20 20 19 19 19 19 19 18 18 17 17 15 13 10 8 8 9 11 13 14 16 18 19 20 21 21 22 22 23 23 23 23 23 25 27 29 30 29 26 22 18 15 15 17 18 20 22 23 25
Wind_Direction
302 301 301 301 301 301 301 300 300 300 300 300 300 300 300 300 300 300 300 300 300 299 299 298 297 296 296 295 294 294 294 294 294 294 294 295 295 295 295 294 294 294 294 294 293 292 291 291 290 290 291 291 291 292 292 292 292 292 292 291 290 289 288 286 285 284 283 282 281 281 281 281 280 280 279 278 277 275 272 270 267 264 262 259 257 255
302 302 302 301 301 301 301 301 301 301 301 301 301 301 301 301 301 301 301 300 300 299 298 298 297 296 295 295 294 294 294 294 295 295 295 295 295 295 295 295 295 295 295 294 293 292 291 291 292 292 293 293 294 294 294 294 295 295 294 294 293 293 291 290 288 286 285 283 282 281 281 281 281 281 280 280 278 277 275 273 270 267 264 261 258 256
302 302 302 302 302 302 302 302 301 301 301 301 301 301 301 301 301 301 301 300 300 299 298 297 296 295 295 295 295 295 295 295 295 295 295 295 295 295 295 296 296 296 295 293 292 292 292 293 293 293 293 294 294 294 294 294 294 294 294 294 294 294 293 293 291 289 287 285 284 282 281 281 281 281 280 280 279 278 277 275 272 270 267 264 261 258
303 302 302 302 302 302 302 302 302 302 302 302 302 302 302 302 302 301 301 300 299 298 297 296 296 295 295 295 295 295 295 295 295 295 295 295 295 295 296 296 296 295 294 293 292 292 293 293 293 293 293 293 293 294 294 294 294 294 294 294 294 294 294 294 293 292 290 288 286 284 282 281 280 280 280 280 279 279 278 276 274 272 269 266 263 260
303 303 303 303 303 303 303 303 303 303 302 302 302 302 302 302 302 301 301 300 299 298 297 296 296 295 295 295 295 295 295 295 294 294 294 294 295 295 296 296 295 294 293 292 292 293 293 293 293 293 293 294 294 294 295 295 295 295 295 295 295 295 295 295 294 294 293 291 289 286 284 282 280 279 279 279 278 278 278 276 275 273 270 267 265 262
303 303 303 303 303 303 303 303 303 303 303 303 303 303 303 302 302 301 300 299 298 297 296 296 295 295 295 295 295 294 294 294 293 293 293 294 295 296 296 296 294 293 293 293 293 293 294 294 294 295 295 296 296 296 297 296 296 296 296 295 295 295 294 294 294 294 293 292 290 289 286 284 281 279 278 277 277 276 276 275 274 273 270 268 265 262
304 304 304 304 304 304 304 304 304 304 304 304 304 303 303 302 301 300 299 299 298 297 296 295 295 294 294 294 294 293 293 293 293 293 293 294 295 296 296 295 294 294 293 294 294 294 295 295 296 297 297 298 299 299 299 298 298 298 297 296 295 295 294 293 293 292 292 292 291 290 288 286 283 280 278 276 275 274 273 273 272 271 269 267 264 261
304 304 305 305 305 305 305 305 305 304 304 304 304 303 303 302 301 300 299 298 297 296 295 295 294 294 293 293 293 293 292 292 292 292 293 294 295 296 296 295 295 294 295 295 295 296 296 297 298 299 300 300 301 301 301 301 300 300 299 298 297 295 294 292 291 290 290 290 290 290 290 288 285 283 279 277 274 272 271 269 268 268 266 265 263 261
305 305 306 306 306 306 306 306 305 305 305 304 304 303 302 301 300 299 298 297 296 295 294 293 293 293 293 292 292 292 292 292 292 293 293 295 296 296 296 295 295 295 295 296 296 297 298 299 300 301 302 303 303 303 303 303 303 303 302 301 299 297 295 292 291 289 288 289 290 291 291 290 288 285 282 279 275 272 269 267 265 264 263 262 260 259
306 306 307 307 306 306 306 306 305 305 305 304 303 302 301 300 299 298 298 297 295 294 293 293 292 292 292 293 292 292 292 292 292 292 294 295 296 296 296 296 296 296 297 297 298 299 300 301 302 303 304 305 305 305 305 305 305 305 304 303 301 298 295 293 290 288 288 288 289 291 292 292 290 288 285 281 277 274 270 267 264 261 259 258 257 256
307 307 307 307 307 307 306 306 305 305 304 304 303 302 301 300 299 298 297 296 295 294 293 293 293 293 293 293 292 292 291 291 291 292 294 295 296 297 297 297 297 298 298 298 299 300 301 302 304 305 306 307 307 307 307 307 307 306 305 303 300 297 295 292 290 288 288 288 289 291 292 292 291 289 286 282 279 275 271 268 264 261 258 256 254 252
308 308 308 308 307 307 307 306 306 305 304 304 303 302 301 300 299 298 297 295 294 293 293 294 294 294 294 293 292 291 290 290 290 292 294 295 296 297 298 298 298 298 298 299 300 301 302 304 305 307 308 308 308 308 308 308 307 306 304 302 299 296 293 291 289 288 288 288 289 291 292 292 292 290 288 284 280 276 273 269 266 263 260 256 253 251
308 308 308 308 307 307 307 306 306 305 304 303 302 301 300 299 299 298 297 295 294 294 294 294 295 295 294 293 291 290 289 289 290 292 294 296 297 298 298 299 298 298 298 299 300 302 303 305 307 308 308 308 308 308 308 307 307 305 303 300 297 294 292 290 289 288 288 288 289 291 292 293 293 292 289 286 282 278 274 271 268 265 262 259 256 253
309 309 308 308 308 307 307 307 306 305 304 303 302 301 300 299 298 297 296 295 295 294 294 294 295 294 294 292 290 289 288 289 291 293 296 297 298 299 299 299 298 298 299 300 301 303 305 307 308 308 308 308 308 308 308 307 306 305 302 299 296 293 291 290 289 288 288 288 290 292 293 295 295 293 292 289 285 281 277 273 269 267 264 262 259 256
309 309 308 308 308 308 307 307 306 305 304 303 302 301 300 299 298 297 296 295 295 295 294 294 294 294 293 292 290 288 288 289 292 295 297 299 300 300 299 299 299 299 300 301 303 305 306 307 308 308 308 308 308 308 308 308 306 304 301 298 296 293 292 290 289 288 289 289 291 293 295 296 296 295 293 291 288 285 280 275 271 267 265 263 261 259
309 309 309 308 308 308 307 307 306 305 304 303 301 300 299 298 297 297 296 296 295 295 294 294 293 293 292 291 290 289 289 291 293 296 299 300 300 300 300 299 300 300 301 303 304 306 307 307 308 308 308 309 309 310 309 308 306 304 301 299 296 294 292 291 290 290 290 292 294 296 298 298 297 296 295 293 291 289 284 279 274 269 266 263 261 260
309 309 309 308 308 308 307 307 305 304 303 302 301 299 298 298 297 297 296 296 295 295 294 294 294 293 291 290 289 289 290 292 294 297 299 301 301 300 299 300 300 301 302 304 305 306 307 307 308 309 310 311 311 311 310 308 306 304 302 300 298 296 294 292 291 292 293 295 298 299 300 300 299 298 297 295 293 291 289 284 279 273 268 264 262 260
309 309 309 309 308 308 307 306 305 303 302 301 300 299 298 298 298 298 297 296 296 296 296 295 295 294 292 291 290 289 290 292 294 297 300 302 302 300 299 299 300 301 303 304 305 306 307 308 309 311 312 313 313 312 310 309 307 305 303 301 299 297 296 294 294 294 296 298 301 302 303 303 303 302 300 298 296 294 291 288 284 278 272 267 263 260
309 309 309 308 308 308 307 305 304 302 301 300 300 299 299 299 299 298 298 298 298 298 298 298 297 296 294 293 291 291 290 292 294 297 301 302 301 299 298 298 300 301 303 304 305 306 308 310 312 314 315 315 314 313 312 310 309 307 305 303 301 299 297 296 296 297 299 301 303 304 305 306 306 305 304 302 300 298 295 292 288 283 278 272 266 262
310 309 309 309 308 307 306 305 304 303 302 301 300 300 300 300 300 300 299 299 299 300 300 299 299 297 296 294 293 293 292 293 295 299 302 302 301 298 297 298 299 302 304 306 307 308 310 312 315 316 317 316 315 315 314 312 311 308 306 304 302 300 298 297 296 297 300 302 305 307 308 308 307 307 307 306 305 304 301 298 295 290 285 280 273 267
310 310 309 309 308 307 306 305 304 304 303 302 301 301 301 301 301 301 301 301 301 301 301 301 301 299 298 297 296 295 293 294 297 299 301 301 300 297 297 298 300 303 306 308 309 311 312 315 317 318 317 317 317 316 316 314 312 310 307 305 303 300 297 295 295 297 300 303 306 309 310 310 309 309 310 310 310 310 308 306 303 299 294 290 284 277
310 310 310 309 309 308 307 306 305 305 304 303 303 303 303 303 302 302 302 301 301 302 302 303 303 301 300 299 298 297 295 296 298 300 301 300 298 297 298 300 303 306 309 310 311 313 314 316 318 318 318 318 318 318 317 316 313 310 307 305 302 299 295 293 293 296 299 304 307 310 310 310 310 311 312 312 312 312 310 308 306 304 301 298 293 289
311 311 311 310 309 308 308 307 307 306 305 305 304 304 304 304 304 304 304 303 303 303 303 303 303 302 302 301 300 299 298 298 299 301 301 301 300 299 300 302 306 309 312 313 313 314 316 317 318 319 319 320 320 320 319 317 315 312 308 305 301 297 294 292 292 295 299 304 307 309 309 308 309 309 310 310 310 308 307 306 304 302 301 298 296 294
312 312 312 311 310 310 309 309 308 308 307 306 305 305 305 305 305 306 306 305 304 304 304 303 303 303 302 302 301 300 299 299 300 301 302 303 303 303 303 305 308 311 314 314 315 315 316 318 319 319 320 321 322 322 321 319 317 313 310 306 302 297 294 292 293 296 299 303 305 306 306 306 306 306 306 306 305 303 302 300 299 297 296 294 293 291
313 313 313 312 311 311 311 310 310 309 307 306 306 305 305 305 306 307 307 306 305 305 304 304 304 303 302 302 301 301 300 300 301 303 305 305 305 306 306 308 310 313 315 316 315 316 316 318 319 320 321 322 323 323 322 321 319 315 312 307 302 297 294 292 293 296 299 302 304 305 306 307 307 306 306 304 303 301 299 297 294 292 291 289 288 287
314 314 313 313 312 312 312 312 311 310 309 308 307 306 306 306 306 306 306 306 305 305 304 304 304 303 303 303 303 303 302 302 303 305 306 307 308 308 308 309 311 314 316 316 316 316 316 318 319 320 322 323 324 324 323 322 321 318 314 309 303 297 293 292 293 296 299 301 304 307 309 310 309 308 307 306 304 302 299 296 293 290 288 286 285 284
314 314 313 313 313 313 313 312 312 311 310 308 308 307 307 307 307 306 305 305 305 304 304 304 304 303 303 304 304 304 304 304 305 306 307 308 308 308 308 309 312 314 316 316 316 316 316 318 320 321 322 324 325 325 325 324 322 320 317 313 307 302 298 296 297 299 302 305 309 311 312 312 311 310 308 306 304 302 299 295 292 289 287 285 283 282
313 313 313 313 313 313 313 312 312 311 310 309 308 308 308 308 307 306 306 305 305 304 305 305 305 305 305 306 306 306 305 305 305 306 307 308 308 308 308 309 311 314 315 316 316 316 316 318 320 321 323 324 325 325 325 324 323 322 320 318 315 312 308 307 307 308 311 313 314 315 315 314 314 313 311 308 306 302 299 296 292 289 286 284 281 279
311 312 312 312 312 312 312 312 311 311 310 309 308 308 308 308 308 308 307 306 305 305 306 306 306 306 307 307 307 306 306 305 306 306 307 308 308 308 308 309 311 314 315 316 316 316 316 318 320 322 323 325 325 326 325 324 323 322 322 322 321 320 318 317 316 317 317 318 318 318 318 318 318 317 316 314 311 308 305 301 297 293 290 286 283 279
310 310 310 310 311 311 311 311 311 310 310 309 309 309 309 309 309 309 308 307 307 307 307 307 307 307 307 307 306 306 305 305 305 306 307 308 308 308 308 309 311 313 315 316 316 315 315 317 319 322 324 325 326 326 325 324 323 322 321 321 320 319 319 320 320 320 320 320 320 320 320 320 319 319 318 317 316 314 311 308 305 301 297 294 289 284
309 309 309 309 309 310 310 310 310 310 310 310 310 310 310 310 309 309 308 308 307 308 307 308 307 307 307 307 306 306 305 305 305 306 307 308 308 308 308 309 311 313 315 316 315 314 314 316 318 322 324 326 326 326 326 325 323 322 321 320 320 320 321 322 322 323 322 322 321 321 320 320 319 319 318 318 317 316 315 312 310 307 304 300 296 291
308 308 308 308 308 309 309 309 310 310 310 310 310 310 310 310 309 309 308 308 307 307 307 307 306 306 306 306 306 306 305 305 305 306 307 308 308 308 308 309 311 313 315 315 315 314 313 315 317 321 324 326 327 327 327 326 325 324 323 322 322 323 324 325 325 324 323 322 321 320 320 320 319 319 318 317 317 316 316 314 312 309 306 304 301 297
307 307 308 308 308 308 308 309 309 310 310 310 310 310 310 309 309 308 308 307 307 307 306 306 305 305 304 304 304 304 305 305 305 306 306 307 307 308 308 308 310 312 314 315 314 313 313 314 317 320 323 325 326 327 327 327 327 326 325 325 325 325 325 326 326 325 323 322 321 320 320 319 319 318 317 316 316 316 316 315 313 311 308 305 302 299
307 307 308 308 308 308 308 309 309 309 310 310 310 309 309 309 308 308 307 307 306 306 306 305 305 304 303 302 302 302 303 303 304 305 305 306 307 307 307 308 309 311 313 313 313 312 311 312 316 319 321 323 324 325 326 327 327 326 326 326 325 325 326 326 325 325 323 322 321 320 319 319 318 317 316 316 316 316 316 315 314 312 310 307 305 301
308 308 308 308 308 308 309 309 309 309 310 310 309 309 309 308 308 307 307 306 306 306 305 305 304 303 302 301 300 300 301 301 302 303 304 305 306 306 306 307 308 311 313 313 312 309 308 309 313 317 319 321 322 322 323 324 324 325 325 325 325 326 326 326 325 325 324 323 322 321 319 318 317 317 316 317 317 317 317 316 315 313 312 310 308 305
308 308 308 308 308 309 309 309 309 309 309 309 309 309 308 308 307 307 306 306 305 305 304 304 303 302 302 301 300 300 299 299 300 300 302 303 304 305 305 306 308 310 313 313 311 308 305 306 308 313 317 318 318 318 319 320 322 322 323 324 325 325 326 326 326 326 325 324 323 321 320 319 318 318 318 319 319 319 319 319 318 317 316 315 312 309
308 308 308 308 308 309 309 309 309 309 309 309 309 309 308 308 307 307 306 305 305 305 304 303 303 302 301 300 300 299 299 298 298 298 300 301 302 303 304 305 307 309 312 313 312 308 303 302 304 308 312 314 315 315 315 317 318 319 320 322 323 324 325 326 327 327 326 324 323 321 320 320 320 321 321 321 322 323 324 325 325 324 323 320 317 311
308 308 308 308 308 308 308 308 309 309 309 309 308 308 308 308 307 307 306 306 305 305 304 304 303 302 301 300 299 298 298 297 297 297 298 299 300 302 303 304 306 308 311 314 313 309 302 299 299 302 305 309 311 312 313 314 315 317 319 321 322 323 324 325 326 326 324 323 322 321 322 322 322 322 323 324 325 328 330 332 331 330 327 324 319 314
307 307 307 307 307 308 308 308 308 308 308 308 308 308 308 308 308 308 307 307 306 306 305 305 304 302 301 300 299 298 298 297 297 297 298 298 299 300 301 303 305 307 310 313 314 311 304 298 295 296 299 303 305 308 310 313 315 317 319 321 322 323 324 324 324 323 322 321 322 322 323 324 324 324 324 326 328 331 333 333 331 328 325 321 318 314
307 307 307 307 307 307 307 307 308 308 308 308 308 308 309 309 309 309 309 309 308 308 307 306 305 304 302 301 300 299 298 297 297 297 297 297 298 299 300 301 303 306 309 312 314 313 307 299 293 291 294 298 301 303 306 310 314 317 320 321 322 322 322 322 321 321 321 321 323 324 326 327 327 326 326 328 330 332 331 329 326 323 319 316 314 312
307 307 307 307 307 307 307 308 308 308 308 309 309 310 310 311 311 311 311 311 311 310 309 309 308 306 305 303 302 300 299 298 297 297 297 297 297 297 298 300 302 304 308 311 313 313 309 302 294 289 290 293 297 301 304 309 313 317 320 322 323 323 323 321 320 320 321 323 325 328 330 331 330 329 328 329 329 329 326 323 320 317 315 313 311 310
307 307 307 307 308 308 308 309 309 309 310 310 311 312 312 313 313 313 313 313 313 312 312 311 310 309 308 306 304 302 301 300 298 298 297 296 296 296 297 298 300 303 306 310 312 313 311 305 298 291 288 290 294 298 303 308 314 318 321 323 324 325 324 322 321 321 323 326 329 332 334 335 334 332 330 328 326 322 319 316 314 312 311 310 310 309
307 307 308 308 309 309 310 310 311 312 312 313 314 314 314 315 315 315 315 315 315 314 313 313 312 311 310 309 307 305 303 302 300 299 297 296 296 295 296 297 299 302 305 309 312 313 312 309 302 295 290 289 291 296 302 308 314 318 321 323 325 326 325 323 323 324 326 329 332 335 336 337 336 334 330 325 320 315 312 310 310 310 310 310 310 310
308 308 309 309 310 311 312 313 314 314 315 315 316 316 316 317 317 317 317 317 316 315 315 314 313 312 312 310 309 307 305 303 302 300 299 297 296 295 295 296 298 301 304 308 312 314 313 310 306 300 294 291 291 295 301 308 314 319 322 324 325 326 325 325 326 327 329 332 334 335 336 336 335 333 329 324 318 314 312 312 312 312 312 312 312 312
309 309 310 311 312 313 314 315 316 316 317 317 317 318 318 319 319 319 319 318 317 317 316 315 315 314 313 312 311 309 307 305 303 302 300 298 297 295 295 296 298 300 304 309 312 314 314 312 309 304 299 295 294 296 300 307 314 319 323 325 326 326 326 327 329 331 333 334 335 334 334 333 332 330 326 323 321 320 319 318 317 316 315 315 315 316
310 311 312 313 314 315 316 317 317 318 318 318 319 319 320 320 320 320 320 319 318 318 317 316 316 316 315 314 313 311 309 307 304 302 301 299 298 296 296 296 298 301 305 309 313 315 316 315 312 307 303 299 298 299 303 309 316 321 324 325 326 326 326 328 330 332 334 335 334 333 332 331 330 327 324 322 322 322 321 321 320 319 318 319 320 321
312 313 314 315 316 317 317 318 318 319 319 319 320 320 321 321 321 321 321 320 319 319 318 317 317 317 317 316 315 313 311 308 305 303 301 299 298 297 296 297 298 301 305 309 313 316 317 317 315 311 307 303 302 303 307 313 318 323 326 327 327 327 327 328 330 333 334 334 333 332 332 331 328 325 322 322 322 322 321 321 320 321 323 326 327 327
314 315 316 317 318 318 318 319 319 319 320 320 321 321 322 322 322 322 321 321 320 319 319 319 318 318 318 317 316 315 313 310 306 303 301 299 298 297 296 297 299 301 305 310 313 317 318 319 317 315 312 309 308 309 313 317 322 326 328 328 329 329 329 330 331 333 333 333 333 333 332 331 328 325 324 323 323 322 321 321 323 327 331 333 333 332
316 317 318 318 319 319 319 319 320 320 321 321 321 322 322 322 322 322 322 321 321 320 320 320 319 319 319 318 318 316 314 312 309 305 302 299 297 296 296 297 299 302 306 310 314 317 320 320 320 319 318 316 315 316 319 322 326 329 330 330 330 330 331 331 332 333 333 333 334 334 334 332 330 329 328 326 324 323 322 324 330 336 339 339 337 337
317 318 319 319 319 320 320 320 320 321 321 321 321 322 322 322 322 322 322 322 322 321 321 321 320 320 320 319 318 317 316 313 310 306 303 300 297 296 295 296 298 302 306 309 314 317 320 322 323 323 323 322 321 322 325 328 331 333 333 332 331 331 331 332 333 334 334 335 336 337 336 335 334 333 332 330 327 325 327 333 340 344 344 342 342 343
318 319 320 320 320 321 321 321 321 321 321 321 321 321 321 321 321 321 322 322 322 322 322 322 321 321 320 320 319 318 317 314 311 308 304 301 298 296 295 296 298 300 304 308 312 317 320 322 323 324 326 326 325 326 331 334 336 337 336 333 332 331 332 333 334 336 337 338 339 339 339 338 338 337 335 333 331 331 336 344 348 348 346 345 347 349